Santuari del Coll - Susqueda





Hora UTC 19:50
Temperatura 17.3 ºC
Humitat 74.0 %
Pressió 1017.2 hPa
Pluja 0.0 mm
Velocitat vent 3.2 km/h
Direcció vent SSE

Dades diàries 2022-08-19



Hora UTC (hivern +1h; estiu +2h)
Temperatura (ºC) Humitat (%) Pressió (hPa) Velocitat vent (km/h) Precipitació (mm)
Hora UTC Aire Humitat Pressió Vel. Dir. Vel. Max Dir. Intent. màx 5 min.
00:05 13.3 84.0 1015.4 1.6 WSW 1.6 0.0
00:10 13.2 82.0 1015.4 1.6 SW 9.7 0.0
00:15 13.4 81.0 1015.3 1.6 SW 9.7 0.0
00:20 13.4 79.0 1015.2 4.8 SW 8.0 0.0
00:25 13.5 78.0 1015.1 9.7 W 9.7 0.0
00:30 13.6 77.0 1015.1 3.2 SW 8.0 0.0
00:35 13.6 78.0 1015.2 3.2 SW 6.4 0.0
00:40 13.6 78.0 1015.2 3.2 WSW 11.3 0.0
00:45 13.6 78.0 1015.2 3.2 SW 11.3 0.0
00:50 13.6 78.0 1015.2 0.0 WSW 8.0 0.0
00:55 13.7 77.0 1015.2 3.2 SSW 8.0 0.0
01:00 13.7 76.0 1015.3 3.2 WSW 6.4 0.0
01:05 13.8 76.0 1015.2 4.8 SW 11.3 0.0
01:10 13.7 76.0 1015.1 3.2 WSW 11.3 0.0
01:15 13.7 78.0 1015.1 4.8 SW 6.4 0.0
01:20 13.6 78.0 1015.1 0.0 SSW 9.7 0.0
01:25 13.5 79.0 1015.1 1.6 SSW 9.7 0.0
01:30 13.4 79.0 1014.9 1.6 S 9.7 0.0
01:35 13.3 80.0 1014.9 3.2 SW 9.7 0.0
01:40 13.3 80.0 1014.9 4.8 SW 9.7 0.0
01:45 13.2 81.0 1015.1 6.4 WSW 9.7 0.0
01:45 13.2 81.0 1015.1 3.2 WSW 12.9 0.0
01:55 13.3 81.0 1015.2 6.4 W 14.5 0.0
02:00 13.3 82.0 1015.3 3.2 SW 14.5 0.0
02:05 13.3 82.0 1015.3 1.6 SW 14.5 0.0
02:10 13.3 83.0 1015.3 8.0 WSW 12.9 0.0
02:15 13.3 84.0 1015.3 3.2 SW 16.1 0.0
02:20 13.3 84.0 1015.2 3.2 SSW 19.3 0.0
02:25 13.3 85.0 1015.3 6.4 WSW 12.9 0.0
02:30 13.3 86.0 1015.2 4.8 WSW 12.9 0.0
02:35 13.2 86.0 1015.2 11.3 W 14.5 0.0
02:40 13.2 87.0 1015.1 6.4 W 16.1 0.0
02:45 13.1 87.0 1015.2 3.2 SSW 16.1 0.0
02:50 13.1 87.0 1015.2 11.3 W 12.9 0.0
02:55 13.0 87.0 1015.2 1.6 SW 16.1 0.0
03:00 13.1 87.0 1015.1 8.0 WSW 16.1 0.0
03:05 13.1 86.0 1015.1 4.8 WSW 16.1 0.0
03:10 13.1 86.0 1015.1 4.8 WSW 12.9 0.0
03:15 13.1 85.0 1015.1 3.2 SW 12.9 0.0
03:20 13.1 85.0 1015.2 6.4 WSW 11.3 0.0
03:25 13.1 85.0 1015.2 3.2 SSW 16.1 0.0
03:30 13.1 85.0 1015.3 6.4 WSW 12.9 0.0
03:35 13.1 86.0 1015.3 3.2 WSW 12.9 0.0
03:40 13.0 87.0 1015.4 11.3 SSW 12.9 0.0
03:45 12.9 87.0 1015.4 3.2 WSW 12.9 0.0
03:50 12.8 87.0 1015.2 3.2 WSW 14.5 0.0
03:55 12.8 87.0 1015.4 6.4 WSW 14.5 0.0
04:00 12.8 88.0 1015.5 6.4 WSW 11.3 0.0
04:05 12.7 88.0 1015.5 6.4 WSW 12.9 0.0
04:10 12.7 88.0 1015.5 6.4 WSW 12.9 0.0
04:15 12.7 89.0 1015.4 12.9 W 12.9 0.0
04:20 12.6 89.0 1015.5 4.8 WSW 14.5 0.0
04:25 12.6 89.0 1015.5 6.4 SSW 12.9 0.0
04:30 12.6 88.0 1015.7 6.4 SW 12.9 0.0
04:35 12.6 88.0 1015.7 3.2 WNW 11.3 0.0
04:40 12.6 87.0 1015.8 3.2 WSW 11.3 0.0
04:45 12.6 87.0 1015.8 3.2 WSW 11.3 0.0
04:50 12.6 86.0 1015.9 1.6 SSE 11.3 0.0
04:55 12.7 87.0 1015.9 4.8 W 12.9 0.0
05:00 12.6 86.0 1015.9 3.2 W 9.7 0.0
05:05 12.6 87.0 1016.1 3.2 WSW 9.7 0.0
05:10 12.6 86.0 1016.0 1.6 SW 9.7 0.0
05:15 12.4 84.0 1016.1 1.6 WSW 6.4 0.0
05:20 12.5 84.0 1016.1 1.6 SW 4.8 0.0
05:25 12.7 83.0 1016.1 0.0 SW 4.8 0.0
05:30 12.9 82.0 1016.2 3.2 SW 4.8 0.0
05:35 13.1 81.0 1016.2 3.2 WSW 6.4 0.0
05:40 13.4 81.0 1016.3 0.0 SW 6.4 0.0
05:45 13.6 79.0 1016.4 0.0 SW 3.2 0.0
05:50 13.9 79.0 1016.4 1.6 SW 6.4 0.0
05:55 14.2 77.0 1016.4 0.0 SW 6.4 0.0
06:00 14.4 75.0 1016.5 1.6 WSW 4.8 0.0
06:05 14.7 74.0 1016.5 0.0 WSW 6.4 0.0
06:10 15.0 73.0 1016.4 0.0 WSW 6.4 0.0
06:15 15.3 73.0 1016.6 1.6 WSW 4.8 0.0
06:20 15.6 69.0 1016.5 0.0 WSW 4.8 0.0
06:25 16.0 67.0 1016.6 0.0 WSW 3.2 0.0
06:30 16.4 66.0 1016.6 3.2 WSW 3.2 0.0
06:35 16.8 66.0 1016.6 0.0 WSW 6.4 0.0
06:40 17.3 63.0 1016.5 1.6 WSW 6.4 0.0
06:45 18.0 64.0 1016.6 0.0 WSW 3.2 0.0
06:50 18.7 65.0 1016.6 1.6 SSE 4.8 0.0
06:55 18.8 64.0 1016.6 6.4 SSE 8.0 0.0
07:00 18.9 63.0 1016.6 3.2 SE 6.4 0.0
07:05 19.1 63.0 1016.6 4.8 SE 6.4 0.0
07:10 19.3 64.0 1016.6 3.2 SE 8.0 0.0
07:15 19.3 61.0 1016.6 3.2 ESE 8.0 0.0
07:20 19.4 63.0 1016.7 3.2 SE 11.3 0.0
07:25 19.4 61.0 1016.6 0.0 SE 11.3 0.0
07:30 19.6 62.0 1016.6 3.2 SE 6.4 0.0
07:35 19.7 64.0 1016.7 0.0 W 8.0 0.0
07:40 19.8 62.0 1016.7 3.2 SSW 8.0 0.0
07:45 19.6 61.0 1016.6 1.6 S 9.7 0.0
07:50 19.7 64.0 1016.6 1.6 ESE 11.3 0.0
07:55 19.7 64.0 1016.7 4.8 ESE 11.3 0.0
08:00 19.6 66.0 1016.7 6.4 SE 9.7 0.0
08:05 19.7 64.0 1016.7 3.2 SE 12.9 0.0
08:10 19.8 63.0 1016.6 6.4 E 11.3 0.0
08:15 20.0 63.0 1016.6 3.2 ESE 11.3 0.0
08:20 20.3 63.0 1016.6 1.6 E 11.3 0.0
08:25 20.4 62.0 1016.7 0.0 E 6.4 0.0
08:30 20.7 65.0 1016.7 3.2 SE 6.4 0.0
08:35 20.8 64.0 1016.6 4.8 E 9.7 0.0
08:40 21.0 62.0 1016.7 1.6 ESE 9.7 0.0
08:45 21.1 60.0 1016.8 9.7 E 9.7 0.0
08:50 20.8 61.0 1016.7 3.2 E 11.3 0.0
08:55 20.5 61.0 1016.8 6.4 E 11.3 0.0
09:00 20.5 63.0 1016.8 9.7 ESE 11.3 0.0
09:05 20.6 61.0 1016.8 1.6 E 11.3 0.0
09:10 20.6 63.0 1016.8 1.6 NW 11.3 0.0
09:15 20.9 61.0 1016.9 0.0 NW 4.8 0.0
09:20 21.1 60.0 1016.9 3.2 E 6.4 0.0
09:25 21.1 64.0 1016.9 1.6 E 6.4 0.0
09:30 21.1 64.0 1016.9 4.8 ESE 6.4 0.0
09:35 21.3 63.0 1016.9 1.6 ESE 6.4 0.0
09:40 21.4 66.0 1016.9 4.8 E 6.4 0.0
09:45 21.3 66.0 1016.9 1.6 E 6.4 0.0
09:50 21.2 63.0 1016.9 0.0 ENE 6.4 0.0
09:55 21.3 62.0 1017.0 1.6 ENE 6.4 0.0
10:00 21.4 62.0 1017.0 1.6 NE 6.4 0.0
10:05 21.6 64.0 1017.0 1.6 E 6.4 0.0
10:10 21.6 62.0 1017.0 3.2 E 8.0 0.0
10:15 21.7 62.0 1017.0 1.6 E 6.4 0.0
10:20 21.9 61.0 1016.9 4.8 E 6.4 0.0
10:25 22.2 61.0 1016.8 0.0 NW 6.4 0.0
10:30 22.7 58.0 1016.9 3.2 WSW 4.8 0.0
10:35 22.9 58.0 1016.8 4.8 NNW 4.8 0.0
10:40 23.1 56.0 1016.9 3.2 N 6.4 0.0
10:45 23.0 58.0 1016.9 0.0 NW 8.0 0.0
10:50 23.1 59.0 1016.8 4.8 NW 8.0 0.0
10:55 22.9 57.0 1016.8 3.2 NW 8.0 0.0
11:00 22.8 58.0 1016.9 3.2 N 8.0 0.0
11:05 22.7 57.0 1016.9 1.6 NNW 8.0 0.0
11:10 22.7 56.0 1016.8 4.8 NNW 8.0 0.0
11:15 22.6 54.0 1016.8 4.8 E 8.0 0.0
11:20 22.8 56.0 1016.8 3.2 NE 8.0 0.0
11:25 23.3 55.0 1016.8 3.2 SW 8.0 0.0
11:30 23.6 54.0 1016.8 3.2 ENE 9.7 0.0
11:35 23.7 53.0 1016.8 1.6 NNW 9.7 0.0
11:40 23.9 53.0 1016.9 1.6 ESE 8.0 0.0
11:45 24.0 49.0 1016.8 8.0 N 16.1 0.0
11:50 23.6 51.0 1016.8 1.6 E 16.1 0.0
11:55 23.1 50.0 1016.8 3.2 SSE 11.3 0.0
12:00 22.3 54.0 1016.8 3.2 WSW 11.3 0.0
12:05 21.8 54.0 1016.7 6.4 ENE 8.0 0.0
12:10 21.7 57.0 1016.8 6.4 SW 8.0 0.0
12:15 22.3 57.0 1016.7 11.3 E 14.5 0.0
12:20 22.8 54.0 1016.7 3.2 ESE 14.5 0.0
12:25 23.2 54.0 1016.7 3.2 E 9.7 0.0
12:30 23.4 55.0 1016.7 6.4 ESE 9.7 0.0
12:35 23.2 56.0 1016.6 3.2 ESE 11.3 0.0
12:40 23.1 57.0 1016.6 4.8 ESE 11.3 0.0
12:45 23.1 58.0 1016.6 6.4 E 12.9 0.0
12:50 22.7 58.0 1016.6 1.6 E 12.9 0.0
12:55 22.1 59.0 1016.6 6.4 ESE 12.9 0.0
13:00 21.7 61.0 1016.5 4.8 ESE 16.1 0.0
13:05 21.6 62.0 1016.5 4.8 SE 17.7 0.0
13:10 21.8 63.0 1016.5 9.7 E 17.7 0.0
13:15 22.1 62.0 1016.3 11.3 SE 17.7 0.0
13:20 22.6 62.0 1016.3 9.7 E 19.3 0.0
13:25 23.1 59.0 1016.4 12.9 SE 19.3 0.0
13:30 23.3 58.0 1016.3 6.4 E 19.3 0.0
13:35 22.6 59.0 1016.3 6.4 ESE 19.3 0.0
13:40 22.2 60.0 1016.3 4.8 ESE 19.3 0.0
13:45 22.5 59.0 1016.3 3.2 SSE 22.5 0.0
13:50 22.9 58.0 1016.2 3.2 SE 17.7 0.0
13:55 23.1 57.0 1016.3 6.4 SE 24.1 0.0
14:00 23.1 57.0 1016.2 4.8 ESE 24.1 0.0
14:05 23.2 55.0 1016.2 4.8 ESE 22.5 0.0
14:10 23.2 56.0 1016.2 9.7 ESE 22.5 0.0
14:15 23.1 56.0 1016.1 4.8 SE 19.3 0.0
14:20 23.2 55.0 1016.1 6.4 ESE 19.3 0.0
14:25 23.2 55.0 1016.1 20.9 SE 20.9 0.0
14:30 22.8 55.0 1016.2 11.3 E 20.9 0.0
14:35 22.9 57.0 1016.2 8.0 SSE 19.3 0.0
14:40 23.1 56.0 1016.2 6.4 ESE 16.1 0.0
14:45 23.1 56.0 1016.1 8.0 E 16.1 0.0
14:50 23.1 57.0 1016.1 14.5 E 20.9 0.0
14:55 22.9 57.0 1016.0 8.0 SSE 20.9 0.0
15:00 22.8 60.0 1016.0 6.4 ESE 20.9 0.0
15:05 22.7 61.0 1016.0 14.5 SE 24.1 0.0
15:10 22.4 62.0 1015.9 8.0 SE 24.1 0.0
15:15 22.3 63.0 1016.0 11.3 E 20.9 0.0
15:20 22.1 64.0 1016.0 8.0 SE 27.4 0.0
15:25 21.9 64.0 1016.0 3.2 ESE 27.4 0.0
15:30 21.9 64.0 1016.0 8.0 SE 20.9 0.0
15:35 21.8 65.0 1015.9 14.5 SE 20.9 0.0
15:40 21.9 65.0 1015.9 14.5 ESE 17.7 0.0
15:45 21.9 65.0 1015.9 6.4 E 17.7 0.0
15:50 21.8 65.0 1015.9 11.3 E 14.5 0.0
15:55 21.7 66.0 1015.8 6.4 ESE 16.1 0.0
16:00 21.6 67.0 1015.9 4.8 E 16.1 0.0
16:05 21.3 68.0 1015.8 6.4 SE 16.1 0.0
16:10 21.1 69.0 1015.8 14.5 ESE 14.5 0.0
16:15 20.9 70.0 1015.8 8.0 SE 16.1 0.0
16:20 20.6 72.0 1015.8 3.2 SE 17.7 0.0
16:25 20.3 73.0 1015.9 6.4 ESE 17.7 0.0
16:30 20.0 75.0 1016.0 3.2 SSE 12.9 0.0
16:35 19.7 76.0 1016.0 3.2 SE 12.9 0.0
16:35 19.5 76.0 1016.1 3.2 SSE 9.7 0.0
16:45 19.3 76.0 1015.9 6.4 SE 14.5 0.0
16:50 19.2 76.0 1016.0 4.8 ESE 14.5 0.0
16:55 19.1 77.0 1016.0 6.4 SSE 12.9 0.0
17:00 18.9 77.0 1016.1 6.4 SSE 11.3 0.0
17:05 18.8 77.0 1016.0 6.4 SSE 12.9 0.0
17:10 18.6 77.0 1016.0 1.6 SE 12.9 0.0
17:15 18.6 78.0 1015.9 4.8 SE 12.9 0.0
17:20 18.4 79.0 1016.0 4.8 SSE 12.9 0.0
17:25 18.2 79.0 1015.9 8.0 SE 17.7 0.0
17:30 18.3 79.0 1016.0 3.2 SSE 17.7 0.0
17:35 18.3 80.0 1016.0 9.7 SE 14.5 0.0
17:40 18.2 81.0 1016.0 3.2 SSE 14.5 0.0
17:45 18.1 81.0 1016.1 6.4 SSE 14.5 0.0
17:50 18.0 82.0 1016.0 8.0 SE 12.9 0.0
17:55 18.0 82.0 1016.1 8.0 SSE 12.9 0.0
18:00 17.9 82.0 1016.1 8.0 SSE 14.5 0.0
18:05 17.9 82.0 1016.2 6.4 SSE 14.5 0.0
18:10 17.9 82.0 1016.2 4.8 SSE 12.9 0.0
18:15 17.9 80.0 1016.2 8.0 SSE 12.9 0.0
18:20 18.0 82.0 1016.2 8.0 SE 12.9 0.0
18:25 18.0 82.0 1016.3 9.7 SSE 12.9 0.0
18:30 17.9 82.0 1016.3 4.8 SE 12.9 0.0
18:35 17.8 82.0 1016.3 4.8 SSE 9.7 0.0
18:40 17.7 81.0 1016.4 8.0 SSE 12.9 0.0
18:45 17.6 81.0 1016.5 3.2 SSE 12.9 0.0
18:50 17.5 79.0 1016.5 1.6 SSE 11.3 0.0
18:55 17.4 78.0 1016.7 3.2 SSE 9.7 0.0
19:00 17.4 78.0 1016.7 3.2 SSE 9.7 0.0
19:05 17.4 78.0 1016.8 3.2 SSE 8.0 0.0
19:10 17.3 78.0 1016.8 9.7 SSE 9.7 0.0
19:15 17.2 76.0 1016.8 4.8 SSE 9.7 0.0
19:20 17.2 75.0 1016.9 3.2 SSE 9.7 0.0
19:25 17.2 75.0 1017.0 3.2 SSE 9.7 0.0
19:30 17.2 74.0 1017.1 6.4 SSE 8.0 0.0
19:35 17.3 74.0 1017.1 3.2 SSE 9.7 0.0
19:40 17.3 73.0 1017.1 6.4 SSE 9.7 0.0
19:45 17.3 74.0 1017.2 3.2 SSE 9.7 0.0
19:50 17.3 74.0 1017.2 3.2 SSE 9.7 0.0
Màxima 24.2 89.0 1017.2 20.9 SE 27.4 0.0
Mínima 12.4 49.0 1014.9
Total 0.0